Temperature
20 21 20 20 21 21 21 21 21 21 21 20 20 20 20 20 20 20 20 20 20 20 20 20 20 20 20 20 20 20 20 20 20 20 20 20 20 20 20 20 19 19 19
21 21 21 21 21 21 21 21 21 20 20 20 20 20 20 20 20 20 20 20 20 20 20 20 20 20 20 20 20 20 20 20 20 20 19 19 19 19 20 20 20 19 19
22 21 21 21 21 21 21 20 20 20 20 20 20 20 20 20 20 20 20 20 20 20 20 20 20 20 20 20 20 20 20 20 20 19 19 19 19 19 19 19 19 19 19
23 22 21 21 21 21 21 20 20 20 20 20 20 20 20 20 20 20 20 20 20 20 20 20 20 20 20 20 20 20 20 20 19 19 19 18 18 18 18 18 19 19 19
23 22 22 21 21 21 21 20 20 20 20 20 20 20 20 20 20 20 20 20 20 20 20 20 20 20 20 20 20 20 20 20 19 19 19 18 18 18 18 18 18 18 18
23 22 22 22 21 21 21 20 20 20 20 20 20 20 20 20 20 20 20 20 20 20 20 20 20 20 20 20 20 20 20 19 19 19 19 18 18 18 17 17 18 18 18
23 23 22 22 22 21 21 21 20 20 20 20 20 20 20 20 20 20 20 20 20 20 20 20 20 20 20 20 20 19 19 19 19 19 19 18 18 18 17 17 17 18 18
24 23 23 22 22 21 21 21 21 20 20 20 20 20 20 20 20 20 20 20 20 20 20 20 20 20 19 19 19 19 19 19 19 19 19 19 18 18 17 17 17 17 18
24 24 23 22 22 22 21 21 21 21 21 20 20 20 20 20 20 20 20 20 20 20 20 20 20 20 19 19 19 19 19 19 19 19 19 19 18 18 18 17 18 18 18
24 24 23 23 23 22 22 21 21 21 21 21 20 20 20 20 20 20 20 20 20 20 20 20 20 19 19 19 19 19 19 19 19 19 19 19 19 18 18 18 18 18 18
23 23 23 23 23 22 22 22 21 21 21 21 20 20 20 20 20 20 20 20 19 19 19 19 19 19 19 19 19 19 19 19 18 19 19 19 19 18 18 18 18 18 18
23 23 23 23 23 22 22 22 22 21 21 21 21 20 20 20 20 20 20 19 19 19 19 19 19 19 19 19 19 18 19 19 18 19 19 19 19 19 18 18 18 18 18
23 23 22 22 22 22 22 22 22 21 21 21 21 20 20 20 20 20 20 19 19 19 19 19 19 19 19 19 19 18 18 18 19 19 19 19 19 19 18 18 18 18 18
23 23 23 22 22 22 22 22 22 21 21 21 21 20 20 20 20 20 20 19 19 19 19 19 19 19 19 18 18 18 18 18 18 18 19 19 19 18 18 18 18 18 18
23 23 22 22 22 21 21 21 21 21 20 20 20 20 20 20 20 20 19 19 19 19 19 19 18 18 18 18 18 18 18 18 18 18 19 19 18 18 18 18 18 18 18
23 23 23 22 22 21 21 21 21 20 20 20 20 20 20 20 20 20 19 19 19 19 19 18 18 18 18 18 18 18 18 18 18 19 19 19 19 18 18 18 18 18 18
23 23 23 22 21 21 21 20 20 20 20 19 20 20 20 20 20 19 19 19 19 19 19 18 18 18 18 18 18 18 18 19 19 19 19 19 19 19 19 18 18 18 18
23 23 22 21 21 21 20 20 20 20 20 19 19 19 19 19 19 19 19 19 19 19 19 18 18 18 18 18 18 18 19 19 19 19 19 19 19 19 19 19 19 18 18
22 22 22 21 21 21 20 20 20 20 20 20 20 20 20 19 19 19 19 19 19 19 19 18 18 18 18 18 18 18 19 19 19 19 19 19 19 19 19 19 19 19 18
22 22 21 21 20 20 19 19 19 19 19 19 19 19 19 19 19 19 19 19 18 18 18 18 18 18 18 18 18 18 18 19 19 19 19 19 19 19 19 19 19 19 19
22 21 21 20 20 20 19 19 19 19 19 19 19 19 19 19 19 19 18 18 18 18 18 18 18 18 18 18 17 17 18 18 18 19 19 19 19 19 19 19 19 19 19
21 21 21 20 20 19 19 19 18 18 18 18 18 19 19 19 18 18 18 18 18 18 18 17 18 17 17 17 17 17 17 17 18 18 18 18 18 18 19 19 19 19 18
22 22 21 20 20 19 19 18 18 18 18 18 18 18 18 18 18 18 18 18 18 18 17 17 17 17 17 17 17 16 16 16 17 17 17 18 18 18 18 18 18 18 18
22 22 21 20 20 19 18 18 18 17 17 17 17 17 17 17 17 17 17 17 17 17 17 17 17 17 16 16 16 16 16 16 15 16 17 17 17 17 17 17 18 18 17
22 21 21 20 20 19 18 18 17 17 17 17 17 17 17 17 17 17 17 17 17 17 17 17 16 16 16 16 16 16 15 15 15 15 15 17 17 17 17 17 17 17 17
22 21 21 20 19 19 18 17 17 17 16 16 16 16 16 16 16 16 16 16 16 16 16 16 16 16 16 15 15 15 15 15 15 15 15 16 16 16 16 16 16 16 16
Wind_Speed
11 16 23 23 21 19 18 17 17 17 17 17 17 17 17 16 16 15 15 14 13 13 12 12 12 12 12 12 13 12 12 12 11 11 11 11 11 10 9 11 12 11 12
14 19 24 24 22 20 19 18 17 16 16 16 16 16 15 15 14 14 13 13 12 11 11 11 10 10 10 10 10 10 9 9 8 8 9 8 8 8 9 11 12 10 11
18 19 23 24 23 21 19 18 17 16 16 15 15 14 14 13 13 12 11 11 11 10 10 9 9 9 8 8 7 6 6 5 4 5 5 5 5 6 9 12 12 11 10
19 19 21 24 23 22 20 18 17 17 16 15 14 14 13 12 12 11 10 10 9 9 9 8 8 7 7 6 5 4 3 2 2 2 3 4 6 7 9 11 12 11 10
16 18 22 25 23 22 20 19 18 17 16 15 15 14 13 12 11 11 10 9 9 8 8 7 7 7 7 6 5 4 4 4 4 5 5 7 9 10 12 12 12 12 11
14 16 22 24 23 22 20 19 18 17 16 16 15 14 13 12 12 11 10 10 9 8 8 7 7 7 7 7 7 6 6 6 7 7 7 9 11 14 16 15 14 14 13
14 15 20 23 23 22 21 19 18 17 17 16 15 14 14 13 12 12 11 10 10 9 8 8 8 8 8 8 8 8 8 8 9 10 9 8 10 15 19 18 17 16 15
18 15 19 23 22 21 20 19 18 17 17 16 15 15 14 13 13 13 12 12 11 11 10 10 10 10 10 10 10 10 10 10 9 9 9 9 10 15 20 20 19 18 18
16 14 14 19 20 21 20 20 19 18 17 16 16 15 15 14 14 14 13 13 13 13 13 12 12 12 12 12 12 12 12 13 12 11 12 12 11 13 20 22 21 20 19
14 13 10 14 16 17 18 20 19 18 18 17 17 16 15 15 15 15 15 15 15 15 16 15 15 15 14 14 14 15 15 14 14 13 12 14 16 15 19 23 23 21 20
13 11 10 10 11 14 15 18 19 19 18 18 17 17 16 14 14 15 16 17 18 18 18 18 18 17 16 16 17 17 16 13 13 12 13 17 19 19 20 24 25 23 22
15 13 12 11 10 12 14 14 14 15 15 16 14 15 15 14 15 15 17 20 21 21 20 20 20 18 17 14 15 16 13 15 13 13 15 20 21 22 22 24 26 25 23
16 16 14 13 11 11 8 9 10 11 12 14 15 16 14 13 13 14 12 15 18 20 17 16 17 15 13 12 11 11 13 13 12 13 16 21 23 24 24 24 26 25 23
16 16 15 14 13 12 9 7 9 8 8 10 15 17 13 8 8 9 9 11 12 13 11 11 9 11 12 14 13 11 12 11 12 13 16 21 24 24 23 24 25 25 24
15 15 15 14 14 13 10 7 9 8 9 12 14 17 16 9 10 9 7 9 10 11 9 8 8 8 8 10 12 11 10 11 13 14 14 19 22 22 22 24 25 25 25
13 13 14 15 14 12 11 10 9 8 10 11 12 16 19 15 10 10 9 8 8 10 10 8 9 9 9 8 9 9 8 8 10 11 13 15 18 21 23 25 27 27 26
8 8 10 12 12 12 11 10 8 8 9 8 11 17 19 18 13 11 10 9 8 10 9 7 7 5 6 7 8 8 7 6 7 8 10 11 13 18 23 26 27 28 28
4 4 4 7 9 10 9 8 6 5 5 5 8 10 15 17 16 10 10 9 7 7 6 6 5 5 5 5 5 6 6 6 8 7 8 10 11 12 17 24 27 29 29
5 4 4 3 5 6 6 6 6 5 5 4 5 5 8 12 15 9 10 8 6 5 5 5 4 4 5 5 5 6 6 6 7 8 8 9 10 12 14 17 24 28 30
6 6 4 2 2 1 2 4 5 7 7 6 5 5 7 8 10 8 8 8 6 5 5 4 4 4 4 5 6 7 6 7 7 8 9 8 7 10 12 13 14 18 25
6 7 4 3 2 1 2 3 5 6 6 6 7 7 7 7 8 7 8 7 6 6 7 6 5 5 5 4 3 5 6 7 8 8 6 6 7 7 7 7 7 9 11
7 7 5 4 3 2 1 2 4 4 5 6 6 7 7 7 7 8 8 7 7 7 8 8 7 5 5 5 4 3 4 5 5 6 4 3 3 4 5 4 3 3 5
6 6 5 4 3 1 1 1 2 3 3 4 4 5 6 6 7 7 8 7 7 7 8 8 8 8 7 5 5 5 4 5 4 4 3 2 3 4 4 3 2 1 2
5 5 5 4 3 2 1 1 1 2 4 5 5 5 7 6 7 6 6 6 7 7 8 8 8 7 7 6 5 6 5 4 3 3 4 3 3 3 4 4 3 2 2
6 6 5 4 3 2 1 1 1 3 4 5 5 6 6 6 6 5 5 5 6 6 8 8 8 8 7 7 6 4 4 4 4 4 4 4 3 3 3 3 2 2 3
6 5 5 4 2 1 1 0 1 3 5 6 6 6 6 5 5 5 5 5 5 6 7 8 8 8 7 7 6 5 4 4 4 4 4 3 3 3 3 2 2 2 2
Wind_Direction
156 159 155 154 151 148 144 140 135 130 126 122 119 117 115 113 113 112 113 113 113 111 109 108 106 105 104 104 105 108 111 113 115 116 116 116 113 106 103 116 114 108 108
151 157 154 154 153 150 147 143 140 137 133 130 128 127 125 123 121 120 120 120 119 118 116 114 111 109 108 108 108 110 111 112 114 117 121 124 122 111 103 125 124 122 118
147 154 154 154 153 151 150 148 146 144 142 140 138 138 137 135 133 131 130 129 127 126 125 125 122 120 119 118 117 117 116 115 117 126 136 144 150 141 128 128 132 131 129
147 152 154 155 155 153 153 152 151 151 150 149 149 149 149 149 148 146 144 142 141 139 139 139 139 139 140 142 145 150 156 163 180 204 207 209 201 184 166 150 147 146 146
147 151 157 157 156 156 157 157 157 157 158 158 160 161 162 163 163 162 161 161 158 157 158 158 159 161 165 171 181 196 219 240 248 252 257 252 233 210 194 176 166 163 164
147 152 158 158 159 158 159 161 163 165 166 167 168 170 172 174 176 177 176 177 176 176 178 178 179 182 187 193 203 217 233 251 263 263 259 262 237 215 205 193 184 179 180
149 155 161 161 162 162 163 165 168 171 173 175 177 179 181 183 186 187 187 189 191 193 195 196 199 202 205 211 219 229 240 253 264 265 264 259 234 216 209 202 194 190 190
153 158 163 165 166 166 167 170 173 177 179 182 185 187 189 191 193 195 196 198 202 206 210 212 214 217 220 223 228 235 243 251 262 269 277 273 253 228 217 209 203 199 198
156 160 165 169 170 171 173 175 178 182 185 188 191 193 196 198 201 204 205 207 210 214 218 221 223 225 227 229 234 239 245 251 255 261 271 275 274 245 225 216 211 208 206
159 165 167 169 171 174 177 181 184 188 191 194 197 199 202 204 208 211 213 215 218 222 225 227 228 230 231 233 236 241 247 253 252 251 256 263 266 254 235 225 218 215 213
162 171 173 173 174 176 180 188 190 194 197 200 203 206 207 211 214 218 221 223 225 228 230 232 233 235 236 239 241 244 249 249 245 249 251 254 257 255 246 232 223 219 218
171 178 181 181 180 179 188 191 194 199 204 206 208 211 212 214 219 224 229 231 232 233 234 236 237 240 242 243 245 248 246 246 244 246 249 251 254 256 252 237 226 223 221
176 179 183 186 184 186 196 190 196 204 207 213 215 217 218 220 226 232 233 237 238 238 237 239 239 239 239 241 243 242 243 247 242 241 245 249 253 255 250 236 226 223 223
176 185 184 186 188 193 198 194 196 205 208 214 220 220 219 222 226 230 232 232 230 230 228 230 232 234 237 242 244 246 248 247 243 239 244 250 252 251 243 229 223 224 226
179 186 185 187 192 195 198 199 199 208 213 216 219 222 219 219 226 228 230 231 229 224 221 223 227 232 235 240 244 245 246 244 242 241 247 252 251 244 234 227 224 225 229
179 183 183 190 196 195 198 202 205 207 216 220 222 222 220 222 225 228 230 226 223 218 218 218 222 227 232 235 239 240 243 245 244 244 247 254 252 244 235 230 228 229 231
169 172 178 193 200 200 203 204 204 208 213 218 224 226 224 223 224 226 228 227 222 214 209 212 218 218 227 230 237 242 245 248 254 254 256 256 254 249 240 236 235 234 234
143 154 161 192 206 210 217 220 221 216 218 223 226 227 227 226 225 225 227 229 219 208 199 204 207 212 227 230 236 246 250 254 261 262 263 261 255 254 247 242 239 239 239
108 127 148 184 201 209 227 240 248 254 254 249 245 237 233 229 228 226 228 227 215 210 211 216 214 213 230 240 245 251 253 254 259 267 266 263 255 251 248 246 243 241 241
92 97 114 107 79 198 236 262 271 268 264 261 257 254 251 242 234 227 232 228 212 209 221 221 225 230 233 241 261 266 260 256 257 260 267 269 264 258 251 248 245 245 243
91 90 88 88 88 127 214 236 249 256 259 262 259 257 255 250 242 232 234 223 212 213 219 220 221 233 241 227 247 278 275 262 259 260 264 273 280 280 270 255 244 241 247
103 101 95 93 106 127 217 241 249 258 264 259 266 271 266 261 252 248 235 225 214 219 223 225 219 220 233 206 198 235 289 304 277 259 258 263 301 318 315 303 279 252 250
111 119 123 130 128 136 219 268 302 309 307 306 299 291 284 277 266 252 240 229 220 219 229 227 220 215 228 224 203 196 213 246 294 299 268 281 343 338 325 316 328 335 258
147 147 149 155 152 155 124 59 332 311 298 289 290 289 294 290 284 270 252 234 225 220 222 226 220 215 217 230 224 217 212 199 218 290 305 304 324 323 321 326 349 10 51
176 173 172 169 176 184 155 131 331 300 286 291 298 304 304 300 293 285 265 246 236 230 228 226 223 217 214 220 213 205 217 218 206 214 271 303 324 315 325 335 7 31 54
192 184 176 173 194 213 197 284 308 300 304 312 313 312 307 302 298 296 282 263 248 237 230 227 223 217 213 214 209 200 193 193 195 196 227 262 291 301 335 6 37 47 52
Height
1523 1527 1530 1532 1534 1536 1537 1539 1541 1543 1544 1545 1546 1547 1548 1549 1550 1550 1551 1551 1552 1552 1552 1553 1553 1553 1553 1554 1554 1554 1554 1554 1555 1555 1555 1555 1555 1555 1555 1554 1554 1554 1554
1521 1526 1530 1532 1534 1536 1538 1539 1541 1543 1544 1545 1547 1548 1549 1549 1550 1551 1551 1552 1552 1552 1553 1553 1554 1554 1555 1555 1555 1555 1555 1556 1556 1556 1556 1556 1556 1556 1556 1556 1556 1556 1556
1522 1525 1529 1532 1534 1536 1538 1539 1541 1543 1544 1545 1546 1547 1548 1549 1550 1551 1551 1552 1552 1553 1553 1553 1554 1554 1555 1555 1556 1556 1556 1556 1556 1556 1556 1557 1557 1557 1557 1557 1557 1557 1557
1522 1525 1528 1531 1534 1536 1538 1539 1541 1542 1544 1545 1546 1547 1548 1549 1550 1550 1551 1551 1552 1552 1553 1553 1553 1554 1554 1555 1555 1556 1556 1556 1556 1556 1556 1556 1556 1557 1557 1557 1557 1557 1557
1523 1526 1528 1531 1533 1536 1537 1539 1541 1542 1543 1544 1545 1546 1547 1548 1549 1550 1550 1551 1551 1551 1552 1552 1553 1553 1553 1554 1554 1555 1555 1555 1555 1555 1555 1555 1555 1556 1556 1557 1557 1557 1557
1523 1526 1528 1531 1533 1535 1537 1538 1540 1541 1543 1544 1544 1545 1546 1547 1547 1548 1549 1549 1550 1550 1551 1551 1551 1552 1552 1553 1553 1553 1554 1554 1554 1554 1554 1554 1554 1554 1555 1556 1556 1556 1556
1523 1526 1529 1531 1533 1535 1537 1538 1539 1541 1542 1543 1543 1544 1545 1545 1546 1546 1547 1548 1548 1549 1549 1550 1550 1550 1551 1551 1551 1552 1552 1552 1552 1552 1552 1552 1552 1552 1553 1554 1554 1555 1555
1523 1525 1528 1531 1533 1535 1536 1538 1539 1540 1541 1542 1542 1543 1543 1544 1544 1545 1545 1546 1547 1547 1548 1548 1548 1549 1549 1549 1549 1549 1550 1550 1550 1550 1550 1550 1550 1550 1551 1552 1552 1553 1553
1524 1525 1528 1530 1532 1534 1536 1537 1538 1539 1540 1540 1541 1542 1542 1543 1543 1543 1544 1544 1545 1545 1546 1546 1547 1547 1547 1547 1547 1547 1547 1547 1547 1546 1546 1547 1547 1548 1548 1549 1550 1550 1550
1524 1525 1527 1529 1531 1533 1534 1536 1537 1537 1538 1539 1540 1540 1541 1541 1542 1542 1542 1543 1543 1543 1544 1544 1544 1544 1544 1544 1544 1544 1544 1544 1544 1543 1543 1543 1544 1545 1546 1546 1547 1547 1548
1523 1525 1527 1528 1530 1531 1533 1534 1535 1536 1537 1538 1538 1539 1539 1539 1540 1540 1540 1541 1541 1541 1541 1541 1542 1542 1542 1541 1541 1541 1541 1541 1541 1540 1540 1540 1541 1542 1543 1543 1543 1544 1544
1521 1523 1526 1527 1529 1530 1531 1533 1534 1535 1536 1536 1537 1537 1537 1538 1538 1538 1538 1538 1538 1538 1539 1539 1539 1539 1538 1538 1538 1538 1538 1538 1538 1538 1538 1538 1539 1539 1539 1539 1540 1540 1540
1520 1522 1524 1526 1528 1529 1530 1531 1532 1533 1534 1534 1535 1535 1535 1535 1535 1535 1535 1535 1535 1535 1535 1535 1535 1535 1535 1535 1535 1535 1535 1535 1535 1535 1535 1535 1535 1535 1535 1535 1536 1536 1537
1518 1520 1523 1525 1527 1528 1529 1530 1531 1531 1531 1532 1533 1533 1533 1533 1533 1532 1532 1532 1532 1532 1532 1532 1532 1532 1532 1532 1532 1532 1532 1532 1531 1531 1531 1532 1531 1531 1531 1531 1532 1532 1533
1516 1519 1521 1524 1525 1527 1528 1528 1529 1529 1530 1530 1530 1531 1530 1530 1530 1530 1529 1529 1528 1528 1529 1529 1529 1529 1529 1529 1529 1529 1529 1528 1528 1527 1527 1527 1527 1527 1527 1527 1528 1528 1528
1514 1517 1519 1521 1523 1525 1526 1526 1526 1527 1528 1528 1527 1528 1528 1527 1527 1526 1526 1525 1524 1524 1525 1525 1525 1525 1525 1525 1525 1525 1525 1524 1524 1523 1523 1522 1522 1522 1522 1523 1523 1523 1524
1515 1517 1519 1520 1521 1522 1524 1524 1524 1524 1524 1524 1523 1524 1524 1523 1523 1522 1521 1521 1520 1520 1520 1520 1520 1521 1520 1520 1520 1520 1520 1520 1519 1519 1518 1518 1517 1517 1517 1517 1517 1518 1518
1515 1517 1518 1518 1519 1518 1521 1522 1521 1522 1521 1521 1520 1520 1519 1518 1518 1517 1516 1516 1516 1516 1516 1516 1516 1516 1516 1516 1516 1516 1516 1515 1515 1514 1513 1512 1512 1511 1511 1511 1511 1512 1513
1515 1516 1516 1516 1517 1517 1519 1519 1518 1518 1518 1517 1517 1516 1515 1514 1513 1512 1511 1511 1511 1511 1512 1512 1512 1512 1511 1511 1511 1511 1511 1510 1509 1509 1507 1507 1506 1505 1505 1505 1505 1506 1507
1513 1514 1514 1515 1515 1515 1515 1515 1515 1514 1512 1511 1511 1510 1509 1508 1507 1506 1506 1505 1505 1505 1506 1506 1506 1506 1506 1506 1506 1505 1505 1504 1504 1502 1502 1501 1500 1500 1499 1499 1499 1500 1501
1511 1512 1512 1513 1513 1512 1512 1511 1510 1509 1507 1506 1505 1504 1503 1502 1501 1500 1499 1499 1499 1498 1498 1499 1500 1500 1500 1501 1501 1500 1499 1498 1497 1496 1496 1495 1495 1494 1493 1493 1493 1494 1495
1509 1510 1510 1511 1511 1510 1509 1508 1506 1504 1502 1500 1499 1497 1496 1495 1494 1494 1492 1492 1492 1492 1491 1492 1492 1493 1493 1495 1495 1495 1493 1492 1490 1490 1490 1489 1489 1489 1488 1487 1488 1488 1489
1507 1507 1508 1508 1508 1507 1505 1504 1501 1499 1496 1494 1492 1491 1489 1488 1487 1486 1485 1485 1484 1484 1484 1484 1486 1486 1487 1488 1489 1490 1488 1486 1485 1485 1485 1485 1485 1484 1483 1483 1483 1483 1483
1505 1505 1505 1505 1504 1502 1501 1499 1497 1494 1491 1489 1487 1485 1483 1482 1480 1479 1478 1477 1477 1477 1477 1477 1478 1479 1480 1480 1482 1482 1483 1483 1483 1481 1481 1481 1481 1480 1480 1479 1479 1479 1479
1503 1502 1502 1501 1500 1498 1497 1495 1492 1490 1488 1485 1482 1480 1478 1476 1474 1473 1471 1470 1470 1470 1470 1470 1470 1472 1472 1474 1475 1476 1476 1477 1477 1477 1476 1476 1477 1477 1477 1476 1475 1475 1475
1500 1500 1499 1498 1496 1495 1493 1491 1488 1486 1483 1480 1477 1475 1472 1470 1468 1467 1465 1464 1463 1463 1463 1463 1464 1465 1466 1467 1468 1469 1470 1471 1471 1472 1472 1472 1472 1474 1474 1474 1473 1472 1472